Location: Star Hoppers Observatory
(42.7905°N, 83.6127°W)
Time: 09:46:33
(UTC-04:00)

Amateur Radio Satellites - All Passes

Search period start: 23 October 2014 09:16
Search period end: 24 October 2014 09:16
Location: Star Hoppers Observatory, 42.7905°N, 83.6127°W

Satellite Date Start Highest point End Downlink Frequencies (MHz)
Time Altitude Azimuth
RS-15 23 Oct 10:02:21 10:12:16 39° 252° (WSW) 10:22:35 29.354 - 29.394 USB, Beacon 29.352 USB
HO-68 23 Oct 10:02:51 10:09:35 41° 98° (E) 10:16:15 435.675 MHz FM
SO-67 23 Oct 10:03:18 10:03:54 10° 296° (WNW) 10:04:30 435.3500 MHz FM
Saudisat 1A 23 Oct 10:07:28 10:11:19 29° 314° (NW) 10:15:12 436.775 MHz
MaSat-1 23 Oct 10:17:12 10:19:51 52° 61° (ENE) 10:22:15 437.345 MHz
UKube-1 23 Oct 10:30:56 10:34:25 23° 95° (E) 10:37:52 145.840 MHz, 145.915 MHz
FUNcube-1 23 Oct 11:07:31 11:10:51 22° 93° (E) 11:14:06 145.950 - 145.970 MHz USB
Oscar 11 23 Oct 11:13:29 11:17:46 62° 101° (E) 11:22:01 145.825 FM, Beacon 2401.500 USB
HO-68 23 Oct 11:50:37 11:57:15 42° 296° (WNW) 12:03:52 435.675 MHz FM
ZACube-1 23 Oct 11:57:54 12:02:13 81° 103° (ESE) 12:06:24 437.345 MHz
UKube-1 23 Oct 12:06:42 12:10:39 34° 291° (WNW) 12:14:35 145.840 MHz, 145.915 MHz
PCSat 23 Oct 12:11:16 12:13:47 13° 35° (NE) 12:16:18 145.825 MHz
KITSAT 1 23 Oct 12:25:19 12:32:08 31° 107° (ESE) 12:38:57 435.175 FM
FUNcube-1 23 Oct 12:43:28 12:47:18 32° 291° (WNW) 12:51:03 145.950 - 145.970 MHz USB
Oscar 16 23 Oct 12:45:31 12:48:12 14° 59° (ENE) 12:50:54 437.025 USB, Beacon 2401.1428
Oscar 11 23 Oct 12:51:20 12:53:26 14° 298° (WNW) 12:55:31 145.825 FM, Beacon 2401.500 USB
Sapphire 23 Oct 13:30:23 13:35:28 38° 51° (NE) 13:40:30 437.095 MHz 1200 baud AX-25 AFSK
Oscar 19 23 Oct 13:36:43 13:41:28 39° 69° (ENE) 13:46:14 437.125 CW, 437.150 USB
ZACube-1 23 Oct 13:37:15 13:37:55 10° 300° (WNW) 13:38:34 437.345 MHz
SO-50 23 Oct 13:41:48 13:45:50 34° 115° (ESE) 13:49:59 436.795 FM
AO-27 23 Oct 13:51:11 13:55:16 24° 63° (ENE) 13:59:22 436.795 MHz FM
JAS-1B 23 Oct 13:52:42 13:58:22 47° 69° (ENE) 14:03:46 435.800 - 435.900 CW/SSB
PCSat 23 Oct 13:52:59 13:58:23 60° 56° (ENE) 14:03:43 145.825 MHz
ISS 23 Oct 13:59:22 14:02:29 38° 139° (SE) 14:05:37 145.800 FM
Oscar 10/S400 23 Oct 14:11:47 14:28:54 33° 151° (SSE) 14:48:41 145.825 - 145.975 CW/USB, Beacon 145.810 USB
KITSAT 1 23 Oct 14:19:01 14:27:01 63° 307° (NW) 14:35:03 435.175 FM
Oscar 16 23 Oct 14:21:42 14:26:53 81° 256° (WSW) 14:32:04 437.025 USB, Beacon 2401.1428
AO-Echo 23 Oct 14:29:50 14:34:37 61° 73° (ENE) 14:39:36 ?
AO-7 23 Oct 14:37:22 14:41:56 16° 45° (NE) 14:46:30 29.400 - 29.500 MHz
Uribyol 2 23 Oct 14:38:23 14:43:32 64° 72° (ENE) 14:48:44 436.500 FM
ITAMSAT 1 23 Oct 14:44:00 14:49:09 68° 73° (ENE) 14:54:22 435.822 SSB
Gurwin Techsat 1B 23 Oct 14:54:48 14:59:49 45° 70° (ENE) 15:04:52 435.225 FM
TMSAT-1 23 Oct 15:07:07 15:12:05 43° 69° (ENE) 15:17:06 436.925 FM
Sapphire 23 Oct 15:13:58 15:18:48 34° 250° (WSW) 15:23:37 437.095 MHz 1200 baud AX-25 AFSK
UOSAT-12 23 Oct 15:14:15 15:18:09 28° 113° (ESE) 15:22:08 437.025 FM, 437.400 FM
Oscar 19 23 Oct 15:16:35 15:20:54 27° 265° (W) 15:25:13 437.125 CW, 437.150 USB
SO-50 23 Oct 15:22:20 15:26:23 31° 314° (NW) 15:30:34 436.795 FM
AO-27 23 Oct 15:29:29 15:34:28 47° 261° (W) 15:39:31 436.795 MHz FM
ISS 23 Oct 15:36:07 15:39:13 34° 337° (NNW) 15:42:19 145.800 FM
PCSat 23 Oct 15:37:26 15:41:18 20° 254° (WSW) 15:45:09 145.825 MHz
JAS-1B 23 Oct 15:44:39 15:49:20 23° 266° (W) 15:53:50 435.800 - 435.900 CW/SSB
AO-Echo 23 Oct 16:10:58 16:13:51 16° 270° (W) 16:16:49 ?
Uosat F 23 Oct 16:14:05 16:18:20 28° 65° (ENE) 16:22:36 435.120 FM
KITSAT 1 23 Oct 16:18:25 16:24:11 21° 331° (NNW) 16:29:59 435.175 FM
Uribyol 2 23 Oct 16:20:14 16:23:27 16° 269° (W) 16:26:42 436.500 FM
AO-7 23 Oct 16:25:02 16:33:10 65° 66° (ENE) 16:41:20 29.400 - 29.500 MHz
ITAMSAT 1 23 Oct 16:26:07 16:29:08 15° 270° (W) 16:32:10 435.822 SSB
Gurwin Techsat 1B 23 Oct 16:35:44 16:39:58 24° 267° (W) 16:44:14 435.225 FM
TMSAT-1 23 Oct 16:47:51 16:52:10 25° 266° (W) 16:56:30 436.925 FM
Saudisat 1A 23 Oct 16:53:20 16:57:28 37° 49° (NE) 17:01:35 436.775 MHz
UOSAT-12 23 Oct 16:53:47 16:58:09 39° 312° (NW) 17:02:36 437.025 FM, 437.400 FM
JAS-2 23 Oct 17:13:37 17:18:44 30° 61° (ENE) 17:24:24 435.800 - 435.900 CW/SSB, 435.910 FM
ISS 23 Oct 17:14:14 17:16:37 18° 357° (N) 17:19:00 145.800 FM
OPAL 23 Oct 17:50:06 17:53:20 17° 94° (E) 17:56:32 ?
Uosat F 23 Oct 17:52:22 17:56:58 36° 262° (W) 18:01:37 435.120 FM
AO-7 23 Oct 18:19:35 18:26:28 29° 265° (W) 18:33:25 29.400 - 29.500 MHz
KITSAT 1 23 Oct 18:20:06 18:23:27 13° 2° (N) 18:26:48 435.175 FM
Hamsat 23 Oct 18:22:57 18:27:07 66° 75° (ENE) 18:31:17 145.90 MHz
Saudisat 1A 23 Oct 18:33:12 18:36:53 26° 246° (WSW) 18:40:32 436.775 MHz
ISS 23 Oct 18:51:18 18:54:08 25° 17° (NNE) 18:56:58 145.800 FM
JAS-2 23 Oct 18:57:51 19:03:28 47° 263° (W) 19:09:51 435.800 - 435.900 CW/SSB, 435.910 FM
SO-67 23 Oct 19:02:01 19:04:31 19° 69° (ENE) 19:07:02 435.3500 MHz FM
OPAL 23 Oct 19:27:42 19:32:35 57° 291° (WNW) 19:37:25 ?
STRAND 1 23 Oct 19:31:37 19:35:35 22° 93° (E) 19:39:31 ?
Hamsat 23 Oct 20:02:26 20:03:30 11° 271° (W) 20:04:33 145.90 MHz
KITSAT 1 23 Oct 20:16:20 20:22:32 23° 32° (NNE) 20:28:42 435.175 FM
ISS 23 Oct 20:27:46 20:31:07 75° 216° (SW) 20:34:26 145.800 FM
HO-68 23 Oct 20:32:34 20:38:50 34° 61° (ENE) 20:45:08 435.675 MHz FM
SO-67 23 Oct 20:34:30 20:37:21 24° 265° (W) 20:40:14 435.3500 MHz FM
SO-50 23 Oct 20:34:38 20:34:52 10° 28° (NNE) 20:35:06 436.795 FM
AO-40 23 Oct 20:59:33 23:14:11 20° 116° (ESE) 00:23:41 Beacon 2401.320
STRAND 1 23 Oct 21:10:03 21:15:00 47° 290° (WNW) 21:19:54 ?
UKube-1 23 Oct 21:27:21 21:30:46 23° 66° (ENE) 21:34:12 145.840 MHz, 145.915 MHz
FUNcube-1 23 Oct 22:04:34 22:08:06 23° 66° (ENE) 22:11:37 145.950 - 145.970 MHz USB
Oscar 11 23 Oct 22:09:05 22:13:18 53° 73° (ENE) 22:17:31 145.825 FM, Beacon 2401.500 USB
KITSAT 1 23 Oct 22:11:17 22:19:24 75° 56° (NE) 22:27:27 435.175 FM
SO-50 23 Oct 22:12:06 22:16:42 42° 49° (NE) 22:21:20 436.795 FM
RS-15 23 Oct 22:15:15 22:24:47 36° 107° (ESE) 22:34:12 29.354 - 29.394 USB, Beacon 29.352 USB
HO-68 23 Oct 22:19:23 22:26:17 50° 260° (W) 22:33:15 435.675 MHz FM
ZACube-1 23 Oct 22:54:31 22:59:06 72° 75° (ENE) 23:03:38 437.345 MHz
UKube-1 23 Oct 23:02:48 23:06:46 34° 262° (W) 23:10:46 145.840 MHz, 145.915 MHz
FUNcube-1 23 Oct 23:39:57 23:44:15 39° 262° (W) 23:48:31 145.950 - 145.970 MHz USB
UOSAT-12 23 Oct 23:42:32 23:46:49 33° 46° (NE) 23:51:02 437.025 FM, 437.400 FM
Oscar 11 23 Oct 23:47:28 23:49:48 14° 269° (W) 23:52:07 145.825 FM, Beacon 2401.500 USB
SO-50 23 Oct 23:53:01 23:57:05 27° 247° (WSW) 00:01:10 436.795 FM
MaSat-1 23 Oct 23:55:38 23:58:18 17° 107° (ESE) 00:00:51 437.345 MHz
KITSAT 1 24 Oct 00:07:47 00:14:01 25° 256° (WSW) 00:20:14 435.175 FM
RS-15 24 Oct 00:25:26 00:36:21 68° 309° (NW) 00:47:18 29.354 - 29.394 USB, Beacon 29.352 USB
ZACube-1 24 Oct 00:34:18 00:35:56 12° 271° (W) 00:37:34 437.345 MHz
UOSAT-12 24 Oct 01:22:42 01:26:57 34° 245° (WSW) 01:31:08 437.025 FM, 437.400 FM
MaSat-1 24 Oct 01:29:49 01:33:45 42° 300° (WNW) 01:37:20 437.345 MHz
JAS-1B 24 Oct 01:36:27 01:39:06 12° 89° (E) 01:41:52 435.800 - 435.900 CW/SSB
Oscar 19 24 Oct 01:49:26 01:51:26 12° 89° (E) 01:53:26 437.125 CW, 437.150 USB
Oscar 16 24 Oct 02:32:56 02:37:34 33° 97° (E) 02:42:09 437.025 USB, Beacon 2401.1428
AO-Echo 24 Oct 02:36:53 02:40:46 20° 92° (E) 02:44:39 ?
RS-15 24 Oct 02:42:18 02:51:14 28° 339° (NNW) 03:00:18 29.354 - 29.394 USB, Beacon 29.352 USB
Uribyol 2 24 Oct 02:51:11 02:55:07 21° 93° (E) 02:59:01 436.500 FM
ITAMSAT 1 24 Oct 02:56:51 03:00:55 23° 93° (E) 03:04:58 435.822 SSB
Gurwin Techsat 1B 24 Oct 03:11:17 03:14:38 17° 90° (E) 03:17:57 435.225 FM
TMSAT-1 24 Oct 03:23:19 03:26:29 16° 90° (E) 03:29:39 436.925 FM
JAS-1B 24 Oct 03:23:47 03:30:23 76° 104° (ESE) 03:38:17 435.800 - 435.900 CW/SSB
Oscar 19 24 Oct 03:26:15 03:31:23 81° 285° (WNW) 03:36:30 437.125 CW, 437.150 USB
AO-27 24 Oct 03:41:27 03:46:38 59° 101° (E) 03:51:46 436.795 MHz FM
Oscar 16 24 Oct 04:12:22 04:16:50 31° 294° (WNW) 04:21:17 437.025 USB, Beacon 2401.1428
Sapphire 24 Oct 04:13:39 04:18:10 28° 109° (ESE) 04:22:43 437.095 MHz 1200 baud AX-25 AFSK
AO-Echo 24 Oct 04:14:39 04:19:50 54° 289° (WNW) 04:24:59 ?
AO-7 24 Oct 04:27:12 04:32:40 19° 90° (E) 04:38:06 29.400 - 29.500 MHz
Uribyol 2 24 Oct 04:29:50 04:34:51 49° 290° (WNW) 04:39:50 436.500 FM
PCSat 24 Oct 04:35:31 04:40:40 46° 113° (ESE) 04:45:50 145.825 MHz
ITAMSAT 1 24 Oct 04:35:38 04:40:38 47° 290° (WNW) 04:45:36 435.822 SSB
Gurwin Techsat 1B 24 Oct 04:49:46 04:55:03 64° 287° (WNW) 05:00:17 435.225 FM
RS-15 24 Oct 04:59:57 05:08:34 25° 15° (NNE) 05:17:21 29.354 - 29.394 USB, Beacon 29.352 USB
TMSAT-1 24 Oct 05:01:37 05:06:54 67° 287° (WNW) 05:12:08 436.925 FM
OPAL 24 Oct 05:05:05 05:09:46 36° 66° (ENE) 05:14:24 ?
Oscar 19 24 Oct 05:08:23 05:09:53 11° 303° (WNW) 05:11:23 437.125 CW, 437.150 USB
JAS-1B 24 Oct 05:15:53 05:20:34 21° 299° (WNW) 05:25:47 435.800 - 435.900 CW/SSB
AO-27 24 Oct 05:22:01 05:25:41 20° 299° (WNW) 05:29:20 436.795 MHz FM
Sapphire 24 Oct 05:56:11 06:01:21 45° 307° (NW) 06:06:34 437.095 MHz 1200 baud AX-25 AFSK
Uosat F 24 Oct 05:58:41 06:03:43 65° 102° (ESE) 06:08:43 435.120 FM
JAS-2 24 Oct 06:05:23 06:12:04 30° 92° (E) 06:18:43 435.800 - 435.900 CW/SSB, 435.910 FM
Hamsat 24 Oct 06:10:17 06:11:17 11° 89° (E) 06:12:17 145.90 MHz
AO-7 24 Oct 06:18:06 06:26:28 90° 109° (ESE) 06:34:50 29.400 - 29.500 MHz
PCSat 24 Oct 06:19:34 06:24:16 29° 312° (NW) 06:29:00 145.825 MHz
OPAL 24 Oct 06:44:12 06:48:40 29° 262° (W) 06:53:06 ?
STRAND 1 24 Oct 06:48:09 06:52:45 35° 67° (ENE) 06:57:23 ?
RS-15 24 Oct 07:13:21 07:24:13 54° 46° (NE) 07:35:28 29.354 - 29.394 USB, Beacon 29.352 USB
Uosat F 24 Oct 07:38:46 07:41:58 17° 299° (WNW) 07:45:10 435.120 FM
Hamsat 24 Oct 07:43:30 07:47:40 66° 285° (WNW) 07:51:50 145.90 MHz
Sapphire 24 Oct 07:45:14 07:46:15 11° 329° (NNW) 07:47:16 437.095 MHz 1200 baud AX-25 AFSK
JAS-2 24 Oct 07:49:48 07:57:24 62° 290° (WNW) 08:05:04 435.800 - 435.900 CW/SSB, 435.910 FM
SO-67 24 Oct 07:56:53 07:59:28 20° 94° (E) 08:02:02 435.3500 MHz FM
AO-7 24 Oct 08:12:11 08:18:14 23° 309° (NW) 08:24:18 29.400 - 29.500 MHz
STRAND 1 24 Oct 08:27:29 08:31:57 30° 264° (W) 08:36:27 ?
Saudisat 1A 24 Oct 08:39:22 08:43:42 66° 121° (ESE) 08:48:05 436.775 MHz
